Regional Weather Roundup
Issued by NWS Midland/Odessa, TX

Current Version | Previous Version | Text Only | Print | Product List | Glossary On
Versions: 1 2 3 4 5 6 7 8 9 10 11 12 13 14 15 16 17 18 19 20 21 22 23 24 25 26 27 28 29 30 31 32 33 34 35 36 37 38 39 40 41 42 43 44 45 46 47 48 49 50
000
ASUS44 KMAF 190602
RWRMAF
MIDLAND AREA WEATHER ROUNDUP
NATIONAL WEATHER SERVICE MIDLAND TX
100 AM CDT SAT APR 19 2014

...IN SOUTHWEST TEXAS AND SOUTHEAST NEW MEXICO...

CITY           SKY/WX    TMP DP  RH WIND       PRES   REMARKS
ALPINE         FAIR      59  48  67 CALM      30.16F
ANDREWS        FAIR      59  43  55 SE9       30.10S
ARTESIA        CLOUDY    64  45  48 S12       30.07R
BIG SPRING     FAIR      64  41  44 E14       30.12S
CARLSBAD       MOCLDY    67  45  45 SE14G24   30.05R
DRYDEN           N/A     67  51  56 E13       30.06F
FORT STOCKTON  FAIR      63  49  60 SE21G30   30.06F
GUAD PASS      CLOUDY    58  46  64 NE18      30.16R
HOBBS          FAIR      61  45  55 SE12      30.10S
MARFA          FAIR      55  46  71 SE5       30.15R
MIDLAND AIRPK  FAIR      64  45  49 SE12      30.10F
MIDLAND INTL   FAIR      62  45  53 SE12      30.08F
ODESSA         FAIR      62  46  55 SE7       30.09F
PECOS          FAIR      65  48  54 E18G25    30.03F
PRESIDIO       FAIR      69  50  51 NE16G22   30.02S
SEMINOLE       FAIR      60  44  54 SE13      30.11S
SNYDER         FAIR      59  43  55 SE12      30.12S
WINK           FAIR      66  48  52 SE15      30.04S
$$
...OTHER STATIONS IN TEXAS...

CITY           SKY/WX    TMP DP  RH WIND       PRES   REMARKS
ABILENE        FAIR      60  48  64 SE12      30.14R
AMARILLO       FAIR      57  42  57 S18       30.08S
AUSTIN         FAIR      55  53  93 CALM      30.15R
BROWNSVILLE    FAIR      62  61  96 E6        30.12F
CORPUS CHRISTI MOCLDY    61  57  87 SE5       30.13F
DALLAS FTW     MOCLDY    60  47  61 SE5       30.13F
DEL RIO        FAIR      71  52  50 E10       30.06F
EL PASO        CLOUDY    72  40  31 SE14      30.03R
HOUSTON INT    FAIR      61  54  77 NE3       30.14S
LUBBOCK        FAIR      56  43  61 SE13      30.10S
SAN ANGELO     FAIR      65  48  54 SE13      30.11S
SAN ANTONIO    FAIR      63  55  75 E6        30.14S
WACO           FAIR      52  50  93 SW3       30.14S
WICHITA FALLS  NOT AVBL
$$
...OTHER LOCATIONS IN NEW MEXICO...

CITY           SKY/WX    TMP DP  RH WIND       PRES   REMARKS
ALAMAGORDO     MOCLDY    59  46  63 NE5       30.05S
ALBUQUERQUE    LGT RAIN  60  39  45 SE5       30.14S
CANNON AFB     CLEAR     52  43  71 S9        30.11S
CLOVIS         PTCLDY    52  41  66 S9        30.14R
HOLLOMAN AFB   MOCLDY    60  51  72 NE6       30.04S HAZE
ROSWELL        CLOUDY    63  44  50 S9        30.07R
RUIDOSO        CLOUDY    50  41  71 NE3       30.20F
SANTA FE       MOCLDY    57  33  40 SW22G29   30.16R
TRUTH OR CONSE MOCLDY    65  29  25 NW8       30.07S
TUCUMCARI      MOCLDY    62  44  51 S26G37    30.03S
$$



USA.gov is the U.S. government's official web portal to all federal, state and local government web resources and services.